When you browse on this site, cookies collect data to enhance your experience and personalize the content and advertising you see.
Visit our Privacy Policy to learn more. By continuing to use the site, you agree to this use of cookies and data.
  • Em Portugal
  • Lista de países
  • Para 7 dias
  • Temperatura da água
  • Mapas de satélite
  • Mapa do tempo
  • Widgets de tempo
  • user-avatar
    Iniciar Sessão

    Previsão horária em Lipuhina

    Hoje, 19 Julho, Sexta-feira

    Tempo Temperatura Precipitação Vento Pressão Humidade
    00:00 +14°C° 0 mm 1 m/s 745 mmHg 70%
    01:00 +13°C° 0 mm 1 m/s 745 mmHg 72%
    02:00 +13°C° 0 mm 1 m/s 745 mmHg 76%
    03:00 +13°C° 0 mm 2 m/s 745 mmHg 80%
    04:00 +13°C° 0 mm 2 m/s 745 mmHg 85%
    05:00 +14°C° 0 mm 2 m/s 745 mmHg 80%
    06:00 +16°C° 0 mm 2 m/s 745 mmHg 75%
    07:00 +17°C° 0 mm 2 m/s 744 mmHg 71%
    08:00 +19°C° 0 mm 2 m/s 744 mmHg 64%
    09:00 +21°C° 0 mm 3 m/s 744 mmHg 58%
    10:00 +24°C° 0 mm 3 m/s 744 mmHg 52%
    11:00 +26°C° 0 mm 3 m/s 744 mmHg 49%
    12:00 +27°C° 0 mm 2 m/s 744 mmHg 46%
    13:00 +28°C° 0 mm 2 m/s 744 mmHg 44%
    14:00 +28°C° 0 mm 2 m/s 744 mmHg 44%
    15:00 +29°C° 0 mm 2 m/s 743 mmHg 44%
    16:00 +29°C° 0 mm 2 m/s 743 mmHg 43%
    17:00 +27°C° 0.1 mm 2 m/s 743 mmHg 52%
    18:00 +26°C° 0.1 mm 2 m/s 743 mmHg 61%
    19:00 +24°C° 0.1 mm 2 m/s 743 mmHg 71%
    20:00 +21°C° 0.9 mm 2 m/s 743 mmHg 76%
    21:00 +19°C° 0.9 mm 2 m/s 743 mmHg 82%
    22:00 +19°C° 0.9 mm 1 m/s 743 mmHg 88%
    23:00 +18°C° 0.7 mm 1 m/s 743 mmHg 90%

    Amanhã, 20 Julho, Sábado

    Tempo Temperatura Precipitação Vento Pressão Humidade
    00:00 +18°C° 0.7 mm 1 m/s 742 mmHg 92%
    01:00 +16°C° 0.7 mm 1 m/s 742 mmHg 94%
    02:00 +16°C° 0.1 mm 1 m/s 742 mmHg 95%
    03:00 +15°C° 0.1 mm 0 m/s 743 mmHg 95%
    04:00 +14°C° 0.1 mm 0 m/s 743 mmHg 96%
    05:00 +15°C° 0 mm 0 m/s 743 mmHg 94%
    06:00 +18°C° 0 mm 1 m/s 743 mmHg 92%
    07:00 +19°C° 0 mm 1 m/s 743 mmHg 91%
    08:00 +21°C° 0 mm 1 m/s 743 mmHg 82%
    09:00 +23°C° 0 mm 2 m/s 744 mmHg 73%
    10:00 +24°C° 0 mm 2 m/s 744 mmHg 64%
    11:00 +25°C° 0 mm 2 m/s 744 mmHg 61%
    12:00 +27°C° 0 mm 2 m/s 744 mmHg 58%
    13:00 +28°C° 0 mm 2 m/s 744 mmHg 55%
    14:00 +28°C° 0 mm 2 m/s 744 mmHg 55%
    15:00 +28°C° 0 mm 2 m/s 744 mmHg 55%
    16:00 +28°C° 0 mm 2 m/s 744 mmHg 55%
    17:00 +27°C° 0 mm 2 m/s 744 mmHg 62%
    18:00 +26°C° 0 mm 2 m/s 744 mmHg 69%
    19:00 +25°C° 0 mm 1 m/s 744 mmHg 76%
    20:00 +23°C° 0 mm 1 m/s 744 mmHg 80%
    21:00 +20°C° 0 mm 2 m/s 744 mmHg 84%
    22:00 +19°C° 0 mm 2 m/s 744 mmHg 88%
    23:00 +19°C° 0 mm 1 m/s 744 mmHg 90%

    Depois de amanhã, 21 Julho, Domingo

    Tempo Temperatura Precipitação Vento Pressão Humidade
    00:00 +18°C° 0 mm 1 m/s 744 mmHg 92%
    01:00 +18°C° 0 mm 1 m/s 744 mmHg 94%
    02:00 +16°C° 0 mm 1 m/s 744 mmHg 95%
    03:00 +16°C° 0 mm 1 m/s 744 mmHg 96%
    04:00 +15°C° 0 mm 1 m/s 744 mmHg 96%
    05:00 +17°C° 0 mm 2 m/s 744 mmHg 92%
    06:00 +18°C° 0 mm 2 m/s 744 mmHg 88%
    07:00 +19°C° 0 mm 2 m/s 744 mmHg 84%
    08:00 +20°C° 0 mm 2 m/s 744 mmHg 78%
    09:00 +23°C° 0 mm 2 m/s 744 mmHg 71%
    10:00 +24°C° 0 mm 3 m/s 743 mmHg 64%
    11:00 +25°C° 0 mm 3 m/s 743 mmHg 60%
    12:00 +26°C° 0 mm 3 m/s 743 mmHg 57%
    13:00 +26°C° 0 mm 3 m/s 743 mmHg 53%
    14:00 +26°C° 0.1 mm 3 m/s 743 mmHg 54%
    15:00 +26°C° 0.1 mm 3 m/s 743 mmHg 56%
    16:00 +26°C° 0.1 mm 3 m/s 743 mmHg 57%
    17:00 +25°C° 0.3 mm 2 m/s 743 mmHg 67%
    18:00 +23°C° 0.3 mm 2 m/s 743 mmHg 76%
    19:00 +21°C° 0.3 mm 2 m/s 743 mmHg 86%
    20:00 +19°C° 0 mm 2 m/s 743 mmHg 89%
    21:00 +18°C° 0 mm 2 m/s 743 mmHg 93%
    22:00 +17°C° 0 mm 2 m/s 743 mmHg 96%
    23:00 +16°C° 0 mm 2 m/s 743 mmHg 97%

    22 Julho, Segunda-feira

    Tempo Temperatura Precipitação Vento Pressão Humidade
    00:00 +16°C° 0 mm 2 m/s 743 mmHg 97%
    01:00 +15°C° 0 mm 2 m/s 742 mmHg 97%
    02:00 +15°C° 0 mm 2 m/s 742 mmHg 97%
    03:00 +14°C° 0 mm 1 m/s 742 mmHg 98%
    04:00 +14°C° 0 mm 1 m/s 742 mmHg 98%
    05:00 +15°C° 0 mm 1 m/s 742 mmHg 96%
    06:00 +16°C° 0 mm 2 m/s 742 mmHg 94%
    07:00 +17°C° 0 mm 2 m/s 742 mmHg 92%
    08:00 +19°C° 0 mm 2 m/s 742 mmHg 84%
    09:00 +20°C° 0 mm 2 m/s 742 mmHg 77%
    10:00 +23°C° 0 mm 2 m/s 742 mmHg 69%
    11:00 +23°C° 0.3 mm 2 m/s 742 mmHg 67%
    12:00 +24°C° 0.3 mm 2 m/s 742 mmHg 65%
    13:00 +24°C° 0.3 mm 2 m/s 742 mmHg 64%
    14:00 +24°C° 0.2 mm 3 m/s 742 mmHg 64%
    15:00 +24°C° 0.2 mm 3 m/s 742 mmHg 64%
    16:00 +24°C° 0.2 mm 3 m/s 742 mmHg 64%
    17:00 +23°C° 0.6 mm 2 m/s 742 mmHg 71%
    18:00 +23°C° 0.6 mm 2 m/s 741 mmHg 79%
    19:00 +22°C° 0.6 mm 1 m/s 741 mmHg 86%
    20:00 +20°C° 0.6 mm 1 m/s 741 mmHg 89%
    21:00 +19°C° 0.6 mm 1 m/s 741 mmHg 93%
    22:00 +16°C° 0.6 mm 2 m/s 741 mmHg 96%
    23:00 +16°C° 0 mm 2 m/s 741 mmHg 97%

    23 Julho, Terça-feira

    Tempo Temperatura Precipitação Vento Pressão Humidade
    00:00 +15°C° 0 mm 2 m/s 741 mmHg 97%
    01:00 +14°C° 0 mm 2 m/s 741 mmHg 98%
    02:00 +14°C° 0 mm 2 m/s 741 mmHg 98%
    03:00 +13°C° 0 mm 2 m/s 741 mmHg 98%
    04:00 +13°C° 0 mm 1 m/s 742 mmHg 98%
    05:00 +14°C° 0 mm 2 m/s 742 mmHg 97%
    06:00 +15°C° 0 mm 2 m/s 742 mmHg 96%
    07:00 +16°C° 0 mm 2 m/s 742 mmHg 95%
    08:00 +17°C° 0 mm 2 m/s 742 mmHg 87%
    09:00 +19°C° 0 mm 2 m/s 742 mmHg 80%
    10:00 +20°C° 0 mm 2 m/s 742 mmHg 72%
    11:00 +21°C° 0.3 mm 2 m/s 742 mmHg 73%
    12:00 +21°C° 0.3 mm 2 m/s 742 mmHg 74%
    13:00 +21°C° 0.3 mm 2 m/s 743 mmHg 74%
    14:00 +21°C° 0.5 mm 2 m/s 743 mmHg 77%
    15:00 +21°C° 0.5 mm 2 m/s 743 mmHg 80%
    16:00 +21°C° 0.5 mm 2 m/s 743 mmHg 82%
    17:00 +20°C° 0.2 mm 2 m/s 743 mmHg 85%
    18:00 +21°C° 0.2 mm 1 m/s 743 mmHg 88%
    19:00 +21°C° 0.2 mm 1 m/s 743 mmHg 90%
    20:00 +20°C° 0.4 mm 1 m/s 743 mmHg 92%
    21:00 +19°C° 0.4 mm 1 m/s 743 mmHg 94%
    22:00 +18°C° 0.4 mm 1 m/s 743 mmHg 97%
    23:00 +16°C° 0.1 mm 1 m/s 743 mmHg 97%

    24 Julho, Quarta-feira

    Tempo Temperatura Precipitação Vento Pressão Humidade
    00:00 +16°C° 0.1 mm 1 m/s 743 mmHg 97%
    01:00 +16°C° 0.1 mm 1 m/s 743 mmHg 97%
    02:00 +15°C° 0 mm 1 m/s 744 mmHg 97%
    03:00 +15°C° 0 mm 1 m/s 744 mmHg 97%
    04:00 +14°C° 0 mm 1 m/s 744 mmHg 98%
    05:00 +15°C° 0 mm 1 m/s 744 mmHg 96%
    06:00 +18°C° 0 mm 1 m/s 745 mmHg 95%
    07:00 +19°C° 0 mm 1 m/s 745 mmHg 93%
    08:00 +21°C° 0 mm 1 m/s 745 mmHg 85%
    09:00 +23°C° 0 mm 1 m/s 745 mmHg 76%
    10:00 +25°C° 0 mm 1 m/s 745 mmHg 67%
    11:00 +25°C° 0.1 mm 1 m/s 745 mmHg 65%
    12:00 +26°C° 0.1 mm 1 m/s 746 mmHg 62%
    13:00 +27°C° 0.1 mm 1 m/s 746 mmHg 60%
    14:00 +26°C° 0.4 mm 1 m/s 746 mmHg 66%
    15:00 +25°C° 0.4 mm 1 m/s 746 mmHg 71%
    16:00 +23°C° 0.4 mm 0 m/s 746 mmHg 77%
    17:00 +22°C° 0.2 mm 0 m/s 746 mmHg 79%
    18:00 +22°C° 0.2 mm 0 m/s 746 mmHg 81%
    19:00 +22°C° 0.2 mm 0 m/s 746 mmHg 84%
    20:00 +20°C° 0 mm 0 m/s 746 mmHg 87%
    21:00 +19°C° 0 mm 0 m/s 746 mmHg 90%
    22:00 +17°C° 0 mm 0 m/s 747 mmHg 93%
    23:00 +17°C° 0 mm 0 m/s 747 mmHg 93%
    Mostrar mais